Satellite-Ground Cal/Val Site Overpasses Predictions

Prediction of Satellite NPP Overpassing Cal/Val Site: Antarctic Dome C

Ground Cal/Val Site Location: Latitude: -75.10, Longitude: 123.35; Satellite-Ground Site NADIR distance within 100 km.

Table of predicted overpasses for the next 14.0 days since TLE Epoch: 2/3/2015
Interval Starting Time Ending Time Minimum Distance Time Minimum Distance (km)
1 02/03/2015 15:14:03 02/03/2015 15:14:15 02/03/2015 15:14:09 90.08
2 02/04/2015 14:55:02 02/04/2015 14:55:30 02/04/2015 14:55:16 21.18
3 02/06/2015 07:37:48 02/06/2015 07:38:17 02/06/2015 07:38:03 4.07
4 02/09/2015 15:01:06 02/09/2015 15:01:35 02/09/2015 15:01:21 14.59
5 02/10/2015 14:42:24 02/10/2015 14:42:34 02/10/2015 14:42:29 92.40
6 02/11/2015 07:43:53 02/11/2015 07:44:20 02/11/2015 07:44:06 38.07
7 02/12/2015 07:25:04 02/12/2015 07:25:24 02/12/2015 07:25:14 72.26
8 02/14/2015 15:07:13 02/14/2015 15:07:38 02/14/2015 15:07:25 50.97
9 02/15/2015 14:48:21 02/15/2015 14:48:45 02/15/2015 14:48:33 58.18
